Regional Weather Roundup
Issued by NWS State College, PA

Home | Current Version | Previous Version | Text Only | Print | Product List | Glossary Off
Versions: 1 2 3 4 5 6 7 8 9 10 11 12 13 14 15 16 17 18 19 20 21 22 23 24 25 26 27 28 29 30 31 32 33 34 35 36 37 38 39 40 41 42 43 44 45 46 47 48 49 50

000
ASUS41 KCTP 291610
RWRCTP

REGIONAL WEATHER ROUNDUP
NATIONAL WEATHER SERVICE STATE COLLEGE PA
1200 PM EDT SUN MAR 29 2015

Note: "fair" indicates few or no clouds below 12,000 feet with no
significant weather and/or obstructions to visibility.

* = STATION THAT DOES NOT REPORT PRECIPITATION /E.G. RAIN...SNOW...ETC/
    THUNDER OR FOG.

PAZ002>004-007>009-013>016-020>023-029>032-291700-
WESTERN PENNSYLVANIA

CITY           SKY/WX    TMP DP  RH WIND       PRES   REMARKS
ERIE           SUNNY     37  11  34 SW10      30.28F
MEADVILLE      SUNNY     32  14  47 SW9       30.25F
FRANKLIN*      SUNNY     32  12  43 S8        30.28F
NEW CASTLE     FAIR      36  13  39 VRB5      30.31F
BEAVER COUNTY  SUNNY     34  14  44 S9        30.29F
BUTLER*        SUNNY     34  12  40 W5        30.32F
PITTSBURGH INT MOSUNNY   34  10  37 S10       30.31F
PITTSBURGH     SUNNY     34   9  35 SE13      30.31F
INDIANA*       SUNNY     30  10  43 VRB5      30.34F
LATROBE        SUNNY     30  10  43 SW9       30.36F
WASHINGTON CO* SUNNY     34  12  40 SW6       30.33F
$$

PAZ004>006-010>012-017>019-024>028-033>037-041-042-045-046-049>053-291700-
CENTRAL PENNSYLVANIA

CITY           SKY/WX    TMP DP  RH WIND       PRES   REMARKS
BRADFORD       SUNNY     29  11  47 W5        30.21F
DUBOIS         SUNNY     31   9  39 VRB5      30.25F
CLEARFIELD     SUNNY     31  12  45 S7        30.27F
JOHNSTOWN      SUNNY     27   8  44 W8        30.24F
ALTOONA        SUNNY     31   7  36 W7        30.30F
STATE COLLEGE  SUNNY     32   5  32 SW7       30.29F
WILLIAMSPORT   SUNNY     34   7  32 VRB6      30.31F
SELINSGROVE    SUNNY     34   8  33 E5        30.32F
FT INDIANTOWN  SUNNY     35   4  27 VRB3      30.32F
CAPITAL CITY   SUNNY     35   5  28 NW8       30.35F
HARRISBURG     SUNNY     35   9  33 W8        30.34F
YORK           SUNNY     35   9  33 MISG      30.35F
$$

PAZ038>040-043-044-047-048-054-055-060>062-067>071-291700-
EASTERN PENNSYLVANIA

CITY           SKY/WX    TMP DP  RH WIND       PRES   REMARKS
SCRANTON       SUNNY     34   8  33 W10       30.26F
MOUNT POCONO   SUNNY     29   5  36 N10G20    30.19F
ALLENTOWN      MIX PCPN  37  10  32 NW12G18   30.30F
QUAKERTOWN*    SUNNY     34   9  35 NW7G16    30.31F
READING        SUNNY     36   6  28 NW8G16    30.32F
LANCASTER      SUNNY     35   9  33 N9G22     30.33F
COATESVILLE    SUNNY     34   9  35 NW10G16   30.32F
POTTSTOWN      SUNNY     36   9  32 NW9       30.33F
BLUE BELL      SUNNY     36  12  38 N8        30.31S
DOYLESTOWN     SUNNY     35   7  31 N9        30.29F
WILLOW GROVE   NOT AVBL
NORTH PHILA    SUNNY     38   7  27 N10       30.34S
PHILADELPHIA   SUNNY     37   5  26 N10G22    30.34F
$$


USA.gov is the U.S. government's official web portal to all federal, state and local government web resources and services.